THORAD AGENA D DEB, 4988

Orbit data source: Space-Track

THORAD AGENA D DEB, 4988 is space debris in SSO originally from a launch on Wed, 08 Apr 1970 UTC launched from the Air Force Western Test Range (AFWTR). Debris objects in space refer to the collection of defunct objects orbiting the Earth. Examples of debris include non-operational satellites, rocket bodies, and fragments generated from explosions, collisions, or faulty payload assembly.

Loading next visibility...
Identifier
4988, 1970-025HJ
Orbit
SSO
Country
Flag of USUS
Related business
Manufacturer
Unknown
Mission
Spacecraft
Bus & Motor
Unknown
Mass
Unknown
Launch date (UTC)
1970-04-08 (56 years ago)
Launch vehicle
Unknown
Launch site
Air Force Western Test Range (AFWTR)
Object type
Payload
Rocket body
Debris
Shape & HBR
Unknown shape, 0.2 m
Radar Cross Section
Small (<0.1 m²)

Expand to show TLE details & history
Last TLE update: 9 hours ago

TLE from 9 hours ago
0 THORAD AGENA D DEB
1 04988U 70025HJ  25352.90866685  .00000436  00000-0  57816-3 0  9991
2 04988 100.0121 335.9942 0016718  18.7510  10.0208 13.66939118759195
Epoch: 2025-12-18T21:48Z
TLE epoch observation values (Epoch: 2025-12-18T21:48:28.815Z)
Latitude
28.37101°
Longitude
-84.32584°
Altitude
1,001.809 km
Speed
7.359 km/s
True Right ascension
22h 02m 12s
True Declination
28° 13' 56"
Sunlit
Object was in daylight at epoch
Visualization orbit readout
Latitude
Unknown
Longitude
Unknown
Altitude
Unknown
Speed
Unknown
Apparent Right ascension
Unknown
Apparent Declination
Unknown
Sunlit
N/A
Visualization observer readout
Local Sidereal Time
05:45:14
Azimuth
Unknown
Elevation
Unknown
Doppler factor
Unknown
Orbital elements
Apogee altitude
1,020.224 km
Perigee altitude
995.528 km
Semi-major axis
7,386.013 km
Eccentricity
0.00167
Inclination
100.0121°
RAAN
335.9942°
Arg. of periapsis
18.751°
True anomaly
10.0542°
Mean anomaly
10.0208°
Eccentric anomaly
10.03749°
Mean motion
3.41923 °/min
Orbital period
105.29 mins
BSTAR
0.00057816
Loading maneuver chart data...
Computing Atmospheric mass density...

Documentation

Showing up to 5 results
|